| time (UTC) | temp F | wind direction | speed MPH | gust MPH | rain 1hr in | rain 24hr in | rain mn in | humidity % | barometer mb |
| 20260510043526 | 60 | 0 | 0.0 | 0.0 | 0.00 | 0.00 | 0.00 | 60 | 1012.4 |
| 20260510043039 | 61 | 0 | 0.0 | 0.0 | 0.00 | 0.00 | 0.00 | 59 | 1012.4 |
| 20260510042525 | 61 | 0 | 0.0 | 0.0 | 0.00 | 0.00 | 0.00 | 57 | 1012.4 |
| 20260510042025 | 62 | 0 | 0.0 | 0.0 | 0.00 | 0.00 | 0.00 | 55 | 1012.3 |
| 20260510041542 | 62 | 0 | 0.0 | 0.0 | 0.00 | 0.00 | 0.00 | 54 | 1012.2 |
| 20260510041025 | 62 | 0 | 0.0 | 3.0 | 0.00 | 0.00 | 0.00 | 54 | 1012.1 |
| 20260510040525 | 62 | 0 | 0.0 | 3.0 | 0.00 | 0.00 | 0.00 | 53 | 1012.0 |
| 20260510040038 | 62 | 0 | 0.0 | 2.0 | 0.00 | 0.00 | 0.00 | 53 | 1011.8 |
| 20260510035523 | 62 | 0 | 0.0 | 0.0 | 0.00 | 0.00 | 0.00 | 53 | 1011.8 |
| 20260510035022 | 62 | 0 | 0.0 | 0.0 | 0.00 | 0.00 | 0.00 | 53 | 1011.7 |
| 20260510034535 | 62 | 0 | 0.0 | 0.0 | 0.00 | 0.00 | 0.00 | 53 | 1011.7 |
| 20260510034022 | 63 | 0 | 0.0 | 0.0 | 0.00 | 0.00 | 0.00 | 53 | 1011.5 |
| 20260510033527 | 63 | 0 | 0.0 | 0.0 | 0.00 | 0.00 | 0.00 | 53 | 1011.4 |
| 20260510033039 | 62 | 0 | 0.0 | 0.0 | 0.00 | 0.00 | 0.00 | 53 | 1011.3 |
| 20260510032526 | 62 | 0 | 0.0 | 0.0 | 0.00 | 0.00 | 0.00 | 54 | 1011.3 |
| 20260510032027 | 62 | 0 | 0.0 | 0.0 | 0.00 | 0.00 | 0.00 | 54 | 1011.0 |
| 20260510031538 | 62 | 0 | 0.0 | 0.0 | 0.00 | 0.00 | 0.00 | 55 | 1011.1 |
| 20260510031026 | 62 | 0 | 0.0 | 0.0 | 0.00 | 0.00 | 0.00 | 56 | 1011.1 |
| 20260510030522 | 62 | 0 | 0.0 | 0.0 | 0.00 | 0.00 | 0.00 | 56 | 1011.0 |
| 20260510030049 | 62 | 0 | 0.0 | 0.0 | 0.00 | 0.00 | 0.00 | 56 | 1010.9 |
| 20260510025522 | 62 | 0 | 0.0 | 0.0 | 0.00 | 0.00 | 0.00 | 55 | 1010.9 |
| 20260510025025 | 62 | 0 | 0.0 | 0.0 | 0.00 | 0.00 | 0.00 | 55 | 1010.7 |
| 20260510024535 | 63 | 0 | 0.0 | 0.0 | 0.00 | 0.00 | 0.00 | 54 | 1010.7 |
| 20260510024101 | 63 | 0 | 0.0 | 0.0 | 0.00 | 0.00 | 0.00 | 54 | 1010.6 |
| 20260510024025 | 63 | 0 | 0.0 | 0.0 | 0.00 | 0.00 | 0.00 | 54 | 1010.6 |
| 20260510023525 | 63 | 0 | 0.0 | 0.0 | 0.00 | 0.00 | 0.00 | 54 | 1010.5 |
| 20260510023039 | 63 | 0 | 0.0 | 0.0 | 0.00 | 0.00 | 0.00 | 54 | 1010.4 |
| 20260510022525 | 63 | 0 | 0.0 | 0.0 | 0.00 | 0.00 | 0.00 | 53 | 1010.3 |
| 20260510022025 | 63 | 0 | 0.0 | 0.0 | 0.00 | 0.00 | 0.00 | 52 | 1010.2 |
| 20260510021539 | 64 | 0 | 0.0 | 0.0 | 0.00 | 0.00 | 0.00 | 52 | 1010.1 |
| 20260510021024 | 64 | 0 | 0.0 | 0.0 | 0.00 | 0.00 | 0.00 | 52 | 1010.0 |
| 20260510020524 | 64 | 0 | 0.0 | 0.0 | 0.00 | 0.00 | 0.00 | 51 | 1010.0 |
| 20260510020038 | 64 | 0 | 0.0 | 0.0 | 0.00 | 0.00 | 0.00 | 50 | 1009.9 |
| 20260510015529 | 65 | 0 | 0.0 | 0.0 | 0.00 | 0.00 | 0.00 | 49 | 1009.8 |
| 20260510015025 | 65 | 0 | 0.0 | 0.0 | 0.00 | 0.00 | 0.00 | 48 | 1009.7 |
| 20260510014535 | 65 | 0 | 0.0 | 0.0 | 0.00 | 0.00 | 0.00 | 47 | 1009.7 |
| 20260510014025 | 65 | 0 | 0.0 | 0.0 | 0.00 | 0.00 | 0.00 | 47 | 1009.5 |
| 20260510013522 | 65 | 0 | 0.0 | 0.0 | 0.00 | 0.00 | 0.00 | 46 | 1009.3 |
| 20260510013042 | 66 | 0 | 0.0 | 0.0 | 0.00 | 0.00 | 0.00 | 45 | 1009.3 |
| 20260510012525 | 66 | 0 | 0.0 | 0.0 | 0.00 | 0.00 | 0.00 | 45 | 1009.3 |
| 20260510012022 | 66 | 0 | 0.0 | 0.0 | 0.00 | 0.00 | 0.00 | 45 | 1009.3 |
| 20260510011546 | 66 | 0 | 0.0 | 0.0 | 0.00 | 0.00 | 0.00 | 46 | 1009.2 |
| 20260510011024 | 66 | 0 | 0.0 | 0.0 | 0.00 | 0.00 | 0.00 | 46 | 1009.1 |
| 20260510010522 | 66 | 0 | 0.0 | 0.0 | 0.00 | 0.00 | 0.00 | 46 | 1009.0 |
| 20260510010038 | 66 | 0 | 0.0 | 0.0 | 0.00 | 0.00 | 0.00 | 46 | 1009.1 |
| 20260510005525 | 67 | 0 | 0.0 | 0.0 | 0.00 | 0.00 | 0.00 | 45 | 1009.1 |
| 20260510005024 | 67 | 0 | 0.0 | 0.0 | 0.00 | 0.00 | 0.00 | 44 | 1008.9 |
| 20260510004536 | 67 | 0 | 0.0 | 4.0 | 0.00 | 0.00 | 0.00 | 44 | 1008.9 |
| 20260510004022 | 67 | 0 | 0.0 | 4.0 | 0.00 | 0.00 | 0.00 | 43 | 1008.8 |
| 20260510003525 | 67 | 287 | 0.0 | 2.0 | 0.00 | 0.00 | 0.00 | 44 | 1008.7 |
| 20260510003042 | 68 | 0 | 0.0 | 1.0 | 0.00 | 0.00 | 0.00 | 43 | 1008.6 |
| 20260510002524 | 68 | 0 | 0.0 | 4.0 | 0.00 | 0.00 | 0.00 | 42 | 1008.6 |
| 20260510002025 | 69 | 0 | 0.0 | 4.0 | 0.00 | 0.00 | 0.00 | 41 | 1008.5 |
| 20260510001541 | 70 | 0 | 0.0 | 1.0 | 0.00 | 0.00 | 0.00 | 39 | 1008.4 |
| 20260510001025 | 71 | 0 | 0.0 | 0.0 | 0.00 | 0.00 | 0.00 | 37 | 1008.3 |
| 20260510000525 | 71 | 0 | 0.0 | 0.0 | 0.00 | 0.00 | 0.00 | 36 | 1008.2 |
| 20260510000037 | 71 | 0 | 0.0 | 0.0 | 0.00 | 0.00 | 0.00 | 35 | 1008.1 |
| 20260509235525 | 72 | 0 | 0.0 | 2.0 | 0.00 | 0.00 | 0.00 | 34 | 1008.1 |
| 20260509235024 | 72 | 0 | 0.0 | 2.0 | 0.00 | 0.00 | 0.00 | 34 | 1008.2 |
| 20260509234542 | 72 | 0 | 0.0 | 2.0 | 0.00 | 0.00 | 0.00 | 32 | 1007.9 |
| 20260509234025 | 73 | 0 | 0.0 | 0.0 | 0.00 | 0.00 | 0.00 | 33 | 1007.9 |
| 20260509233525 | 73 | 0 | 0.0 | 0.0 | 0.00 | 0.00 | 0.00 | 32 | 1007.8 |
| 20260509233044 | 73 | 0 | 0.0 | 3.0 | 0.00 | 0.00 | 0.00 | 33 | 1007.8 |
| 20260509232525 | 73 | 0 | 0.0 | 3.0 | 0.00 | 0.00 | 0.00 | 32 | 1007.9 |
| 20260509232028 | 73 | 0 | 0.0 | 3.0 | 0.00 | 0.00 | 0.00 | 31 | 1007.8 |
| 20260509231543 | 73 | 0 | 0.0 | 6.0 | 0.00 | 0.00 | 0.00 | 32 | 1007.7 |
| 20260509231026 | 73 | 0 | 0.0 | 6.0 | 0.00 | 0.00 | 0.00 | 31 | 1007.7 |
| 20260509230525 | 73 | 0 | 0.0 | 6.0 | 0.00 | 0.00 | 0.00 | 30 | 1007.6 |
| 20260509230037 | 73 | 0 | 0.0 | 3.0 | 0.00 | 0.00 | 0.00 | 30 | 1007.5 |
| 20260509225524 | 73 | 0 | 0.0 | 8.0 | 0.00 | 0.00 | 0.00 | 31 | 1007.6 |
| 20260509225025 | 74 | 0 | 0.0 | 8.0 | 0.00 | 0.00 | 0.00 | 30 | 1007.5 |
| 20260509224535 | 74 | 287 | 0.0 | 4.0 | 0.00 | 0.00 | 0.00 | 29 | 1007.4 |
| 20260509224022 | 74 | 0 | 0.0 | 4.0 | 0.00 | 0.00 | 0.00 | 31 | 1007.3 |
| 20260509223525 | 75 | 287 | 0.0 | 4.0 | 0.00 | 0.00 | 0.00 | 29 | 1007.3 |
| 20260509223039 | 75 | 0 | 0.0 | 6.0 | 0.00 | 0.00 | 0.00 | 29 | 1007.2 |
| 20260509222525 | 76 | 0 | 0.0 | 6.0 | 0.00 | 0.00 | 0.00 | 28 | 1007.1 |
| 20260509222025 | 76 | 0 | 0.0 | 6.0 | 0.00 | 0.00 | 0.00 | 27 | 1007.2 |
| 20260509221538 | 76 | 0 | 0.0 | 6.0 | 0.00 | 0.00 | 0.00 | 29 | 1007.1 |
| 20260509221022 | 76 | 0 | 0.0 | 6.0 | 0.00 | 0.00 | 0.00 | 28 | 1007.1 |
| 20260509220528 | 77 | 0 | 0.0 | 6.0 | 0.00 | 0.00 | 0.00 | 28 | 1007.1 |
| 20260509220038 | 77 | 0 | 0.0 | 11.0 | 0.00 | 0.00 | 0.00 | 30 | 1007.1 |
| 20260509215525 | 77 | 0 | 0.0 | 11.0 | 0.00 | 0.00 | 0.00 | 28 | 1007.1 |
| 20260509215026 | 78 | 287 | 3.0 | 11.0 | 0.00 | 0.00 | 0.00 | 28 | 1007.1 |
| 20260509214535 | 78 | 0 | 2.0 | 11.0 | 0.00 | 0.00 | 0.00 | 30 | 1007.1 |
| 20260509214024 | 78 | 287 | 4.0 | 11.0 | 0.00 | 0.00 | 0.00 | 30 | 1007.2 |
| 20260509213522 | 78 | 0 | 3.0 | 11.0 | 0.00 | 0.00 | 0.00 | 31 | 1007.2 |
| 20260509213043 | 78 | 287 | 4.0 | 11.0 | 0.00 | 0.00 | 0.00 | 29 | 1007.1 |
| 20260509212524 | 77 | 287 | 2.0 | 11.0 | 0.00 | 0.00 | 0.00 | 35 | 1007.2 |
| 20260509212027 | 77 | 0 | 2.0 | 11.0 | 0.00 | 0.00 | 0.00 | 30 | 1007.1 |
| 20260509211540 | 77 | 0 | 2.0 | 11.0 | 0.00 | 0.00 | 0.00 | 30 | 1007.2 |
| 20260509211022 | 77 | 287 | 1.0 | 10.0 | 0.00 | 0.00 | 0.00 | 29 | 1007.3 |
| 20260509210525 | 76 | 0 | 0.0 | 10.0 | 0.00 | 0.00 | 0.00 | 28 | 1007.2 |
| 20260509210044 | 77 | 287 | 3.0 | 10.0 | 0.00 | 0.00 | 0.00 | 31 | 1007.2 |
| 20260509205525 | 77 | 287 | 3.0 | 8.0 | 0.00 | 0.00 | 0.00 | 32 | 1007.2 |
| 20260509205024 | 76 | 0 | 1.0 | 9.0 | 0.00 | 0.00 | 0.00 | 42 | 1007.4 |
| 20260509204540 | 76 | 287 | 1.0 | 9.0 | 0.00 | 0.00 | 0.00 | 43 | 1007.3 |
| 20260509204029 | 77 | 287 | 1.0 | 9.0 | 0.00 | 0.00 | 0.00 | 43 | 1007.2 |
| 20260509203525 | 77 | 287 | 0.0 | 8.0 | 0.00 | 0.00 | 0.00 | 46 | 1007.3 |
| 20260509203043 | 76 | 287 | 1.0 | 11.0 | 0.00 | 0.00 | 0.00 | 46 | 1007.3 |
| 20260509202521 | 76 | 287 | 1.0 | 11.0 | 0.00 | 0.00 | 0.00 | 41 | 1007.3 |
| 20260509202025 | 76 | 287 | 2.0 | 9.0 | 0.00 | 0.00 | 0.00 | 47 | 1007.2 |
| 20260509201544 | 76 | 287 | 3.0 | 9.0 | 0.00 | 0.00 | 0.00 | 44 | 1007.3 |
| 20260509201025 | 77 | 287 | 1.0 | 8.0 | 0.00 | 0.00 | 0.00 | 43 | 1007.3 |
| 20260509200525 | 77 | 287 | 2.0 | 10.0 | 0.00 | 0.00 | 0.00 | 44 | 1007.3 |
| 20260509200037 | 76 | 0 | 4.0 | 10.0 | 0.00 | 0.00 | 0.00 | 44 | 1007.3 |
| 20260509195525 | 76 | 0 | 0.0 | 9.0 | 0.00 | 0.00 | 0.00 | 47 | 1007.2 |
| 20260509195024 | 76 | 0 | 2.0 | 9.0 | 0.00 | 0.00 | 0.00 | 44 | 1007.4 |
| 20260509194538 | 75 | 0 | 0.0 | 9.0 | 0.00 | 0.00 | 0.00 | 45 | 1007.5 |
| 20260509194025 | 75 | 287 | 4.0 | 10.0 | 0.00 | 0.00 | 0.00 | 44 | 1007.4 |
| 20260509193526 | 75 | 0 | 2.0 | 11.0 | 0.00 | 0.00 | 0.00 | 45 | 1007.5 |
| 20260509193042 | 75 | 287 | 3.0 | 11.0 | 0.00 | 0.00 | 0.00 | 46 | 1007.6 |
| 20260509192524 | 75 | 287 | 0.0 | 8.0 | 0.00 | 0.00 | 0.00 | 49 | 1007.6 |
| 20260509192025 | 75 | 0 | 1.0 | 8.0 | 0.00 | 0.00 | 0.00 | 48 | 1007.6 |
| 20260509191540 | 75 | 287 | 2.0 | 8.0 | 0.00 | 0.00 | 0.00 | 47 | 1007.7 |
| 20260509191027 | 75 | 0 | 0.0 | 12.0 | 0.00 | 0.00 | 0.00 | 47 | 1007.8 |
| 20260509190525 | 75 | 287 | 1.0 | 12.0 | 0.00 | 0.00 | 0.00 | 51 | 1007.9 |
| 20260509190045 | 74 | 287 | 5.0 | 12.0 | 0.00 | 0.00 | 0.00 | 50 | 1007.7 |
| 20260509185525 | 74 | 287 | 3.0 | 11.0 | 0.00 | 0.00 | 0.00 | 50 | 1007.7 |
| 20260509185023 | 74 | 0 | 3.0 | 11.0 | 0.00 | 0.00 | 0.00 | 45 | 1007.7 |
| 20260509184551 | 74 | 0 | 0.0 | 15.0 | 0.00 | 0.00 | 0.00 | 48 | 1007.5 |
| 20260509184026 | 74 | 0 | 4.0 | 15.0 | 0.00 | 0.00 | 0.00 | 43 | 1007.5 |
| 20260509183525 | 74 | 0 | 3.0 | 10.0 | 0.00 | 0.00 | 0.00 | 53 | 1007.3 |
| 20260509183037 | 74 | 287 | 3.0 | 13.0 | 0.00 | 0.00 | 0.00 | 50 | 1007.3 |
| 20260509182527 | 74 | 287 | 1.0 | 13.0 | 0.00 | 0.00 | 0.00 | 48 | 1007.3 |
| 20260509182024 | 74 | 287 | 4.0 | 19.0 | 0.00 | 0.00 | 0.00 | 51 | 1007.2 |
| 20260509181551 | 73 | 0 | 2.0 | 19.0 | 0.00 | 0.00 | 0.00 | 46 | 1007.3 |
| 20260509181025 | 73 | 0 | 2.0 | 12.0 | 0.00 | 0.00 | 0.00 | 52 | 1007.3 |
| 20260509180524 | 73 | 0 | 2.0 | 12.0 | 0.00 | 0.00 | 0.00 | 50 | 1007.3 |
| 20260509180043 | 73 | 287 | 3.0 | 12.0 | 0.00 | 0.00 | 0.00 | 49 | 1007.3 |
| 20260509175527 | 72 | 0 | 3.0 | 12.0 | 0.00 | 0.03 | 0.00 | 53 | 1007.1 |
| 20260509175021 | 72 | 0 | 3.0 | 12.0 | 0.00 | 0.03 | 0.00 | 58 | 1007.2 |
| 20260509174536 | 71 | 0 | 4.0 | 10.0 | 0.00 | 0.03 | 0.00 | 52 | 1007.2 |
| 20260509174026 | 71 | 287 | 4.0 | 10.0 | 0.00 | 0.03 | 0.00 | 60 | 1007.2 |
| 20260509173524 | 71 | 287 | 2.0 | 8.0 | 0.00 | 0.03 | 0.00 | 58 | 1007.1 |
| 20260509173042 | 70 | 0 | 2.0 | 9.0 | 0.00 | 0.03 | 0.00 | 58 | 1007.1 |
| 20260509172525 | 70 | 287 | 2.0 | 9.0 | 0.00 | 0.03 | 0.00 | 64 | 1007.0 |
| 20260509172027 | 69 | 287 | 2.0 | 9.0 | 0.00 | 0.03 | 0.00 | 64 | 1007.0 |
| 20260509171538 | 69 | 0 | 1.0 | 10.0 | 0.00 | 0.03 | 0.00 | 64 | 1006.9 |
| 20260509171026 | 68 | 287 | 3.0 | 10.0 | 0.00 | 0.03 | 0.00 | 65 | 1007.1 |
| 20260509170527 | 68 | 287 | 3.0 | 11.0 | 0.00 | 0.03 | 0.00 | 65 | 1007.1 |
| 20260509170046 | 68 | 287 | 3.0 | 11.0 | 0.00 | 0.03 | 0.00 | 65 | 1007.2 |
| 20260509165526 | 68 | 287 | 2.0 | 11.0 | 0.00 | 0.05 | 0.00 | 69 | 1007.1 |
| 20260509165026 | 68 | 287 | 2.0 | 11.0 | 0.00 | 0.05 | 0.00 | 66 | 1007.2 |
| 20260509164542 | 67 | 287 | 4.0 | 11.0 | 0.00 | 0.05 | 0.00 | 69 | 1007.2 |
| 20260509164030 | 67 | 0 | 2.0 | 10.0 | 0.00 | 0.05 | 0.00 | 71 | 1007.1 |
| 20260509163526 | 67 | 287 | 4.0 | 10.0 | 0.00 | 0.05 | 0.00 | 69 | 1007.0 |
| 20260509163043 | 67 | 0 | 3.0 | 9.0 | 0.00 | 0.05 | 0.00 | 71 | 1007.1 |
| 20260509162527 | 66 | 287 | 1.0 | 10.0 | 0.00 | 0.05 | 0.00 | 72 | 1007.3 |
| 20260509162026 | 66 | 287 | 3.0 | 10.0 | 0.00 | 0.05 | 0.00 | 73 | 1007.2 |
| 20260509161540 | 66 | 287 | 3.0 | 10.0 | 0.00 | 0.05 | 0.00 | 74 | 1007.1 |
| 20260509161026 | 66 | 287 | 2.0 | 10.0 | 0.00 | 0.05 | 0.00 | 74 | 1007.0 |
| 20260509160527 | 65 | 0 | 3.0 | 10.0 | 0.00 | 0.05 | 0.00 | 75 | 1007.0 |
| 20260509160039 | 65 | 287 | 1.0 | 8.0 | 0.00 | 0.05 | 0.00 | 76 | 1006.9 |
| 20260509155527 | 65 | 0 | 2.0 | 8.0 | 0.00 | 0.05 | 0.00 | 77 | 1007.0 |
| 20260509155028 | 64 | 0 | 1.0 | 10.0 | 0.00 | 0.05 | 0.00 | 78 | 1007.0 |
| 20260509154543 | 64 | 287 | 2.0 | 10.0 | 0.00 | 0.05 | 0.00 | 78 | 1007.1 |
| 20260509154029 | 64 | 287 | 3.0 | 10.0 | 0.00 | 0.05 | 0.00 | 77 | 1007.1 |
| 20260509153526 | 63 | 287 | 1.0 | 11.0 | 0.00 | 0.05 | 0.00 | 79 | 1007.1 |
| 20260509153045 | 63 | 287 | 4.0 | 11.0 | 0.00 | 0.05 | 0.00 | 78 | 1007.0 |
| 20260509152526 | 63 | 287 | 2.0 | 11.0 | 0.00 | 0.05 | 0.00 | 79 | 1007.1 |
| 20260509152027 | 63 | 287 | 3.0 | 11.0 | 0.00 | 0.05 | 0.00 | 79 | 1007.2 |
| 20260509151547 | 63 | 0 | 0.0 | 10.0 | 0.00 | 0.05 | 0.00 | 80 | 1007.2 |
| 20260509151027 | 63 | 287 | 3.0 | 10.0 | 0.00 | 0.05 | 0.00 | 83 | 1007.2 |
| 20260509150527 | 62 | 0 | 1.0 | 9.0 | 0.00 | 0.05 | 0.00 | 81 | 1007.0 |
| 20260509150046 | 61 | 0 | 1.0 | 9.0 | 0.00 | 0.05 | 0.00 | 82 | 1007.0 |
| 20260509145527 | 61 | 287 | 2.0 | 10.0 | 0.00 | 0.05 | 0.00 | 83 | 1006.9 |
| 20260509145026 | 61 | 0 | 1.0 | 10.0 | 0.00 | 0.05 | 0.00 | 84 | 1007.0 |
| 20260509144539 | 60 | 0 | 3.0 | 9.0 | 0.00 | 0.05 | 0.00 | 86 | 1007.1 |
| 20260509144027 | 60 | 287 | 2.0 | 11.0 | 0.00 | 0.05 | 0.00 | 86 | 1007.2 |
| 20260509143527 | 59 | 287 | 3.0 | 11.0 | 0.00 | 0.05 | 0.00 | 88 | 1007.2 |
| 20260509143039 | 59 | 287 | 2.0 | 10.0 | 0.00 | 0.05 | 0.00 | 89 | 1007.2 |
| 20260509142526 | 58 | 287 | 4.0 | 9.0 | 0.00 | 0.05 | 0.00 | 90 | 1007.3 |
| 20260509142026 | 58 | 287 | 2.0 | 9.0 | 0.00 | 0.05 | 0.00 | 92 | 1007.2 |
| 20260509141539 | 58 | 0 | 2.0 | 9.0 | 0.00 | 0.05 | 0.00 | 93 | 1007.1 |
| 20260509141027 | 57 | 287 | 4.0 | 9.0 | 0.00 | 0.05 | 0.00 | 94 | 1007.0 |
| 20260509140526 | 57 | 287 | 1.0 | 9.0 | 0.00 | 0.05 | 0.00 | 95 | 1007.0 |
| 20260509140051 | 56 | 287 | 4.0 | 9.0 | 0.00 | 0.05 | 0.00 | 95 | 1006.9 |
| 20260509135526 | 56 | 287 | 3.0 | 9.0 | 0.00 | 0.05 | 0.00 | 96 | 1006.9 |
| 20260509135026 | 55 | 287 | 4.0 | 9.0 | 0.00 | 0.05 | 0.00 | 96 | 1006.8 |
| 20260509134541 | 55 | 287 | 4.0 | 9.0 | 0.00 | 0.05 | 0.00 | 96 | 1006.8 |
| 20260509134026 | 55 | 0 | 2.0 | 9.0 | 0.00 | 0.05 | 0.00 | 96 | 1006.9 |
| 20260509133526 | 54 | 287 | 3.0 | 9.0 | 0.00 | 0.05 | 0.00 | 96 | 1006.9 |
| 20260509133040 | 54 | 287 | 1.0 | 10.0 | 0.00 | 0.05 | 0.00 | 96 | 1006.9 |
| 20260509132527 | 54 | 287 | 5.0 | 10.0 | 0.00 | 0.05 | 0.00 | 96 | 1006.8 |
| 20260509132030 | 53 | 0 | 4.0 | 10.0 | 0.00 | 0.05 | 0.00 | 96 | 1006.9 |
| 20260509131540 | 53 | 287 | 2.0 | 9.0 | 0.00 | 0.05 | 0.00 | 96 | 1007.0 |
| 20260509131026 | 53 | 287 | 3.0 | 9.0 | 0.00 | 0.05 | 0.00 | 96 | 1006.9 |
| 20260509130529 | 53 | 0 | 1.0 | 11.0 | 0.00 | 0.05 | 0.00 | 96 | 1006.9 |
| 20260509130042 | 53 | 0 | 3.0 | 11.0 | 0.00 | 0.05 | 0.00 | 96 | 1006.9 |
| 20260509125531 | 52 | 287 | 4.0 | 9.0 | 0.00 | 0.05 | 0.00 | 96 | 1006.9 |
| 20260509125026 | 52 | 287 | 4.0 | 9.0 | 0.00 | 0.05 | 0.00 | 96 | 1007.0 |
| 20260509124538 | 52 | 287 | 3.0 | 9.0 | 0.00 | 0.05 | 0.00 | 96 | 1007.0 |
| 20260509124026 | 52 | 287 | 1.0 | 9.0 | 0.00 | 0.05 | 0.00 | 96 | 1007.0 |
| 20260509123526 | 52 | 287 | 2.0 | 10.0 | 0.00 | 0.05 | 0.00 | 96 | 1007.1 |
| 20260509123040 | 52 | 0 | 4.0 | 10.0 | 0.00 | 0.05 | 0.00 | 96 | 1006.9 |
| 20260509122526 | 52 | 287 | 5.0 | 10.0 | 0.00 | 0.05 | 0.00 | 96 | 1006.8 |
| 20260509122026 | 52 | 287 | 4.0 | 9.0 | 0.00 | 0.05 | 0.00 | 96 | 1006.8 |
| 20260509121541 | 52 | 287 | 4.0 | 9.0 | 0.00 | 0.05 | 0.00 | 96 | 1006.8 |
| 20260509121026 | 52 | 287 | 4.0 | 8.0 | 0.00 | 0.05 | 0.00 | 96 | 1006.6 |
| 20260509120527 | 52 | 287 | 4.0 | 11.0 | 0.00 | 0.05 | 0.00 | 96 | 1006.6 |
| 20260509120048 | 52 | 287 | 4.0 | 11.0 | 0.00 | 0.05 | 0.00 | 96 | 1006.6 |
| 20260509115526 | 52 | 287 | 4.0 | 11.0 | 0.00 | 0.05 | 0.00 | 96 | 1006.6 |
| 20260509115026 | 52 | 287 | 3.0 | 8.0 | 0.00 | 0.05 | 0.00 | 96 | 1006.6 |
| 20260509114538 | 51 | 287 | 4.0 | 8.0 | 0.00 | 0.05 | 0.00 | 96 | 1006.6 |
| 20260509114026 | 51 | 0 | 3.0 | 8.0 | 0.00 | 0.05 | 0.00 | 96 | 1006.6 |
| 20260509113527 | 51 | 287 | 3.0 | 8.0 | 0.00 | 0.05 | 0.00 | 96 | 1006.5 |
| 20260509113035 | 51 | 0 | 1.0 | 8.0 | 0.00 | 0.05 | 0.00 | 96 | 1006.4 |
| 20260509112526 | 51 | 287 | 1.0 | 8.0 | 0.00 | 0.05 | 0.00 | 96 | 1006.4 |
| 20260509112026 | 51 | 0 | 1.0 | 8.0 | 0.00 | 0.05 | 0.00 | 96 | 1006.3 |
| 20260509111542 | 51 | 287 | 1.0 | 6.0 | 0.00 | 0.05 | 0.00 | 96 | 1006.6 |
| 20260509111027 | 51 | 287 | 1.0 | 6.0 | 0.00 | 0.05 | 0.00 | 96 | 1006.6 |
| 20260509110526 | 51 | 0 | 1.0 | 6.0 | 0.00 | 0.05 | 0.00 | 96 | 1006.6 |
| 20260509110044 | 51 | 0 | 0.0 | 7.0 | 0.00 | 0.05 | 0.00 | 96 | 1006.5 |
| 20260509105526 | 51 | 0 | 0.0 | 7.0 | 0.00 | 0.05 | 0.00 | 96 | 1006.5 |
| 20260509105027 | 51 | 0 | 1.0 | 7.0 | 0.00 | 0.05 | 0.00 | 96 | 1006.6 |
| 20260509104540 | 51 | 0 | 1.0 | 7.0 | 0.00 | 0.05 | 0.00 | 96 | 1006.6 |
| 20260509104027 | 52 | 0 | 0.0 | 3.0 | 0.00 | 0.05 | 0.00 | 96 | 1006.6 |
| 20260509103526 | 52 | 0 | 0.0 | 4.0 | 0.00 | 0.05 | 0.00 | 95 | 1006.5 |
| 20260509103040 | 52 | 0 | 0.0 | 4.0 | 0.00 | 0.05 | 0.00 | 95 | 1006.7 |
| 20260509102527 | 52 | 0 | 0.0 | 3.0 | 0.00 | 0.05 | 0.00 | 95 | 1006.8 |
| 20260509102027 | 52 | 0 | 0.0 | 3.0 | 0.00 | 0.05 | 0.00 | 95 | 1006.9 |
| 20260509101550 | 52 | 0 | 0.0 | 4.0 | 0.00 | 0.05 | 0.00 | 96 | 1006.8 |
| 20260509101029 | 52 | 0 | 0.0 | 4.0 | 0.00 | 0.05 | 0.00 | 96 | 1006.9 |
| 20260509100526 | 52 | 0 | 0.0 | 1.0 | 0.00 | 0.05 | 0.00 | 96 | 1006.8 |
| 20260509100045 | 52 | 0 | 0.0 | 7.0 | 0.00 | 0.05 | 0.00 | 96 | 1006.9 |
| 20260509095528 | 52 | 0 | 0.0 | 7.0 | 0.00 | 0.05 | 0.00 | 96 | 1006.8 |
| 20260509095025 | 52 | 0 | 0.0 | 4.0 | 0.00 | 0.05 | 0.00 | 95 | 1006.8 |
| 20260509094541 | 52 | 0 | 0.0 | 4.0 | 0.00 | 0.05 | 0.00 | 95 | 1006.6 |
| 20260509094026 | 52 | 0 | 0.0 | 6.0 | 0.00 | 0.05 | 0.00 | 95 | 1006.7 |
| 20260509093526 | 52 | 0 | 0.0 | 6.0 | 0.00 | 0.05 | 0.00 | 95 | 1006.8 |
| 20260509093042 | 52 | 287 | 0.0 | 4.0 | 0.00 | 0.05 | 0.00 | 95 | 1006.8 |
| 20260509092525 | 52 | 0 | 1.0 | 4.0 | 0.00 | 0.05 | 0.00 | 95 | 1006.9 |
| 20260509092025 | 52 | 0 | 0.0 | 4.0 | 0.00 | 0.05 | 0.00 | 95 | 1006.9 |
| 20260509091540 | 52 | 0 | 0.0 | 4.0 | 0.00 | 0.05 | 0.00 | 95 | 1006.9 |
| 20260509091028 | 52 | 0 | 0.0 | 4.0 | 0.00 | 0.05 | 0.00 | 95 | 1006.9 |
| 20260509090527 | 52 | 0 | 0.0 | 4.0 | 0.00 | 0.05 | 0.00 | 95 | 1006.8 |
| 20260509090043 | 52 | 0 | 0.0 | 6.0 | 0.00 | 0.05 | 0.00 | 95 | 1006.7 |
| 20260509085526 | 52 | 0 | 0.0 | 6.0 | 0.00 | 0.05 | 0.00 | 95 | 1006.7 |
| 20260509085026 | 52 | 0 | 0.0 | 3.0 | 0.00 | 0.05 | 0.00 | 95 | 1006.7 |
| 20260509084547 | 52 | 0 | 0.0 | 4.0 | 0.00 | 0.05 | 0.00 | 95 | 1006.7 |
| 20260509084030 | 52 | 0 | 0.0 | 4.0 | 0.00 | 0.05 | 0.00 | 95 | 1006.8 |
| 20260509083526 | 52 | 0 | 1.0 | 8.0 | 0.00 | 0.05 | 0.00 | 95 | 1007.0 |
| 20260509083039 | 52 | 0 | 0.0 | 8.0 | 0.00 | 0.05 | 0.00 | 95 | 1007.0 |
| 20260509082526 | 52 | 0 | 0.0 | 8.0 | 0.00 | 0.05 | 0.00 | 95 | 1006.9 |
| 20260509082026 | 52 | 0 | 0.0 | 6.0 | 0.00 | 0.05 | 0.00 | 95 | 1007.0 |
| 20260509081540 | 52 | 0 | 0.0 | 2.0 | 0.00 | 0.05 | 0.00 | 95 | 1006.9 |
| 20260509081026 | 52 | 0 | 0.0 | 2.0 | 0.00 | 0.05 | 0.00 | 95 | 1006.9 |
| 20260509080525 | 52 | 0 | 0.0 | 2.0 | 0.00 | 0.05 | 0.00 | 95 | 1006.9 |
| 20260509080043 | 52 | 0 | 0.0 | 3.0 | 0.00 | 0.05 | 0.00 | 95 | 1006.9 |
| 20260509075530 | 52 | 0 | 0.0 | 3.0 | 0.00 | 0.05 | 0.00 | 95 | 1007.0 |
| 20260509075027 | 52 | 0 | 0.0 | 2.0 | 0.00 | 0.05 | 0.00 | 95 | 1007.1 |
| 20260509074543 | 51 | 0 | 0.0 | 3.0 | 0.00 | 0.05 | 0.00 | 94 | 1007.0 |
| 20260509074026 | 51 | 0 | 0.0 | 4.0 | 0.00 | 0.05 | 0.00 | 94 | 1007.0 |
| 20260509073526 | 51 | 0 | 0.0 | 4.0 | 0.00 | 0.05 | 0.00 | 94 | 1006.9 |
| 20260509073112 | 51 | 287 | 0.0 | 3.0 | 0.00 | 0.05 | 0.00 | 94 | 1007.0 |
| 20260509072526 | 51 | 0 | 0.0 | 0.0 | 0.00 | 0.05 | 0.00 | 94 | 1007.0 |
| 20260509072026 | 51 | 0 | 0.0 | 1.0 | 0.00 | 0.05 | 0.00 | 94 | 1007.1 |
| 20260509071543 | 51 | 0 | 0.0 | 1.0 | 0.00 | 0.05 | 0.00 | 94 | 1007.1 |
| 20260509071026 | 50 | 0 | 0.0 | 0.0 | 0.00 | 0.05 | 0.00 | 93 | 1007.0 |
| 20260509070526 | 50 | 0 | 0.0 | 0.0 | 0.00 | 0.05 | 0.00 | 93 | 1007.0 |
| 20260509070041 | 50 | 0 | 0.0 | 0.0 | 0.00 | 0.05 | 0.00 | 93 | 1007.2 |
| 20260509065525 | 50 | 0 | 0.0 | 0.0 | 0.00 | 0.05 | 0.00 | 93 | 1006.9 |
| 20260509065025 | 50 | 0 | 0.0 | 0.0 | 0.00 | 0.05 | 0.00 | 93 | 1006.8 |
| 20260509064539 | 50 | 0 | 0.0 | 0.0 | 0.00 | 0.05 | 0.00 | 93 | 1006.7 |
| 20260509064028 | 50 | 0 | 0.0 | 0.0 | 0.00 | 0.05 | 0.00 | 93 | 1006.8 |
| 20260509063525 | 50 | 0 | 0.0 | 0.0 | 0.00 | 0.05 | 0.00 | 93 | 1007.1 |
| 20260509063036 | 50 | 0 | 0.0 | 0.0 | 0.00 | 0.05 | 0.00 | 93 | 1007.2 |
| 20260509062525 | 50 | 0 | 0.0 | 0.0 | 0.00 | 0.05 | 0.00 | 92 | 1007.1 |
| 20260509062027 | 50 | 0 | 0.0 | 0.0 | 0.00 | 0.05 | 0.00 | 92 | 1007.2 |
| 20260509061544 | 51 | 0 | 0.0 | 0.0 | 0.00 | 0.05 | 0.00 | 92 | 1007.3 |
| 20260509061026 | 51 | 0 | 0.0 | 0.0 | 0.00 | 0.05 | 0.00 | 92 | 1007.4 |
| 20260509060529 | 51 | 0 | 0.0 | 0.0 | 0.00 | 0.05 | 0.00 | 92 | 1007.3 |
| 20260509060052 | 51 | 0 | 0.0 | 0.0 | 0.00 | 0.05 | 0.00 | 92 | 1007.4 |
| 20260509055526 | 51 | 0 | 0.0 | 0.0 | 0.00 | 0.05 | 0.00 | 92 | 1007.4 |
| 20260509055025 | 51 | 0 | 0.0 | 0.0 | 0.00 | 0.05 | 0.00 | 92 | 1007.5 |
| 20260509054547 | 51 | 0 | 0.0 | 0.0 | 0.00 | 0.05 | 0.00 | 92 | 1007.5 |
| 20260509054026 | 51 | 0 | 0.0 | 0.0 | 0.00 | 0.05 | 0.00 | 92 | 1007.5 |
| 20260509053526 | 51 | 0 | 0.0 | 0.0 | 0.00 | 0.05 | 0.00 | 92 | 1007.5 |
| 20260509053039 | 52 | 0 | 0.0 | 0.0 | 0.00 | 0.05 | 0.00 | 92 | 1007.6 |
| 20260509052525 | 52 | 0 | 0.0 | 0.0 | 0.00 | 0.05 | 0.00 | 91 | 1007.7 |
| 20260509052026 | 52 | 0 | 0.0 | 0.0 | 0.00 | 0.05 | 0.00 | 91 | 1007.8 |
| 20260509051535 | 52 | 0 | 0.0 | 0.0 | 0.00 | 0.05 | 0.00 | 91 | 1007.8 |
| 20260509051026 | 52 | 0 | 0.0 | 0.0 | 0.00 | 0.05 | 0.00 | 91 | 1007.8 |
| 20260509050526 | 52 | 0 | 0.0 | 0.0 | 0.00 | 0.05 | 0.00 | 91 | 1007.7 |
| 20260509050050 | 52 | 0 | 0.0 | 0.0 | 0.00 | 0.05 | 0.00 | 91 | 1007.6 |
| 20260509045526 | 52 | 0 | 0.0 | 0.0 | 0.00 | 0.05 | 0.05 | 90 | 1007.8 |
| 20260509045026 | 52 | 0 | 0.0 | 0.0 | 0.00 | 0.05 | 0.05 | 90 | 1007.8 |
| 20260509044542 | 52 | 0 | 0.0 | 0.0 | 0.00 | 0.05 | 0.05 | 90 | 1007.8 |
| 20260509044026 | 52 | 0 | 0.0 | 0.0 | 0.00 | 0.05 | 0.05 | 90 | 1007.9 |